Other Public Products
Issued by NWS Grand Forks, ND

Home | Current Version | Previous Version | Text Only | Print | Product List | Glossary On
Versions: 1 2 3 4 5 6 7 8 9 10 11 12 13 14 15 16 17 18 19 20 21 22 23 24 25 26 27 28 29 30 31 32 33 34 35 36 37 38 39 40 41 42 43 44 45 46 47 48 49 50
000
FPUS83 KFGF 280310
OPUFGF
PRAIRIE TO PINES WEATHER ROUNDUP
NATIONAL WEATHER SERVICE EASTERN NORTH DAKOTA/GRAND FORKS ND
1000 PM CDT THU JUL 27 2017

 **SATELLITE DATA USED TO AUGMENT SKY COVER AT AUTOMATED STATIONS**
 *****  WEATHER ACROSS EASTERN NORTH DAKOTA  *****

CITY           SKY/WX    TMP DP  RH WIND       PRES   REMARKS
GRAND FORKS    FAIR      70  64  81 CALM      30.04S
GRAND FORKS AF FAIR      66  62  85 CALM      30.06R
GRAND CITY NWS NOT AVBL
BUXTON         NOT AVBL
DEVILS LAKE    FAIR      72  58  61 SE6       30.07S
FARGO          FAIR      66  58  75 CALM      30.05R
WAHPETON ARPT  FAIR      68  61  77 CALM      30.06R
$$

 *****  WEATHER ACROSS CENTRAL AND WESTERN NORTH DAKOTA  *****

CITY           SKY/WX    TMP DP  RH WIND       PRES   REMARKS
JAMESTOWN      FAIR      69  61  75 E7        30.06S
BISMARCK       FAIR      73  61  65 E8        30.03R
MINOT          CLOUDY    74  57  55 E5        30.02S
MINOT AFB      FAIR      71  58  63 S6        30.01S
GARRISON         N/A     72  61  68 E7        30.02S
WILLISTON      FAIR      73  63  70 NE5       30.00S
DICKINSON      FAIR      65  62  90 CALM      30.03S
HETTINGER      FAIR      68  55  63 E6        30.05S
$$

 *****  OTHER OBSERVATIONS NORTHEAST NORTH DAKOTA  *****

CITY           SKY/WX    TMP DP  RH WIND       PRES   REMARKS
WALHALLA       NOT AVBL
LANGDON        FAIR      66  64  94 E6        30.09R
CAVALIER       FAIR      70  66  88 CALM      30.05R
GRAFTON        FAIR      70  63  78 S3        30.06S
CANDO          NOT AVBL
FORT TOTTEN      N/A     70  52  53 SE3       29.95
ROLLA            N/A     64  63  94 SE6       30.08S
RUGBY          NOT AVBL
 ***** THE ABOVE OBSERVATIONS ARE NON NWS ARE NOT QUALITY
        CONTROLLED AND MAY MIS-REPORT RAIN FOR SNOW...
$$

 *****  OTHER OBSERVATIONS SOUTHEAST NORTH DAKOTA *****

CITY           SKY/WX    TMP DP  RH WIND       PRES   REMARKS
COOPERSTOWN    FAIR      68  61  77 E3        30.08S
VALLEY CITY    FAIR      70  61  73 CALM      30.09R
OAKES          NOT AVBL
GWINNER        CLEAR     66  63  88 E6        30.06S
SHEYENNE NWR     N/A     69  63  81 CALM      29.95S
BUFFALO          N/A     68  59  74 SW3         N/A
WYNDMERE       NOT AVBL
 ***** THE ABOVE OBSERVATIONS ARE NON NWS ARE NOT QUALITY
       CONTROLLED AND MAY MIS-REPORT RAIN FOR SNOW...
$$

  *****  WEATHER ACROSS NORTHERN MINNESOTA  *****

CITY           SKY/WX    TMP DP  RH WIND       PRES   REMARKS
FLAG ISLAND    FAIR      73  63  68 CALM      30.05S
WARROAD        FAIR      66  63  88 CALM      30.07S
ROSEAU         FAIR      68  63  83 CALM      30.07R
HALLOCK        FAIR      68  64  88 CALM      30.05R
THF RVR FALLS  FAIR      69  62  78 CALM      30.08R
HALSTAD        NOT AVBL
FOSSTON        FAIR      63  57  82 CALM      30.09R
BAUDETTE       FAIR      66  63  90 CALM      30.06S
WASKISH        FAIR      64  63  94 SW3       30.08R
CROOKSTON      FAIR      70  63  78 CALM      30.06R
$$
  *****  WEATHER ACROSS CENTRAL AND WEST MINNESOTA  *****

CITY           SKY/WX    TMP DP  RH WIND       PRES   REMARKS
BEMIDJI        FAIR      64  56  75 CALM      30.09R
PARK RAPIDS    FAIR      72  59  63 CALM      30.08R
WADENA         FAIR      66  61  82 CALM      30.07S
DETROIT LAKES  FAIR      70  63  78 NE3       30.09R
MOORHEAD       FAIR      72  61  68 CALM      30.07R
FERGUS FALLS   FAIR      72  63  73 CALM      30.06R
ELBOW LAKE     FAIR      73  67  82 CALM      30.07R
MORRIS MN      FAIR      70  63  78 NE5       30.05S
STAPLES        FAIR      66  61  82 CALM      30.07S
WHEATON        FAIR      70  61  73 CALM      30.07R
$$
  *****  WEATHER ELSEWHERE ACROSS MINNESOTA  *****

CITY           SKY/WX    TMP DP  RH WIND       PRES   REMARKS
DULUTH         MOCLDY    60  59  96 W5        30.08S
INTRNTL FALLS  FAIR      62  57  83 CALM      30.07R
ELY            FAIR      61  59  94 CALM      30.09R
CLOQUET        FAIR      66  54  63 E3        30.09F
BRAINERD       FAIR      66  63  90 CALM      30.07R
HIBBING        FAIR      63  56  78 S3        30.09R
ALEXANDRIA     FAIR      72  62  71 CALM      30.08S
SAINT CLOUD    FAIR      67  64  90 CALM      30.05R
MINNEAPOLIS    FAIR      76  58  53 NE6       30.03R
$$

  *****  WEATHER ACROSS SOUTH DAKOTA  *****

CITY           SKY/WX    TMP DP  RH WIND       PRES   REMARKS
SIOUX FALLS    FAIR      70  63  78 E3        30.06R
BROOKINGS      FAIR      73  62  68 E6        30.08R
WATERTOWN      FAIR      71  58  63 E3        30.07R
HURON          FAIR      72  64  76 E5        30.03S
SISSETON         N/A     70  63  78 CALM      30.05R
ABERDEEN       FAIR      71  65  81 NE7       30.05R
MITCHELL       FAIR      72  66  81 E6        30.04S
PIERRE         MOCLDY    78  55  44 E12       30.00F
MOBRIDGE       FAIR      75  59  57 E12       30.00S
RAPID CITY     LGT RAIN  61  58  90 S16       30.03F
$$

  *****  SOME WEATHER IN NEARBY STATES *****

CITY           SKY/WX    TMP DP  RH WIND       PRES   REMARKS
GLASGOW MT     FAIR      78  52  40 SE17G28   29.94F
GREAT FALLS MT FAIR      76  39  26 SW7       29.95S
CHEYENNE WY    FAIR      70  53  54 SW9       30.16F
SCOTTSBLUFF NE FAIR      70  63  78 E17G25    30.05R
OMAHA NE       FAIR      73  66  78 N5        30.01R
DES MOINES IA  FAIR      76  61  59 NE6       29.99R
DAVENPORT IA   FAIR      70  65  84 NE7       29.98R
CHICAGO IL     FAIR      71  58  63 N10       29.94S
EAU CLAIRE WI  FAIR      70  62  76 N5        30.02R
LA CROSSE WI   MOCLDY    78  63  59 N6        29.99R
$$

  *****  SOME NATIONAL WEATHER *****

CITY           SKY/WX    TMP DP  RH WIND       PRES   REMARKS
LA GUARDIA NY  MOCLDY    77  71  82 S8        29.87F
RALEIGH NC     LGT RAIN  76  74  93 SE6       29.94F
ATLANTA GA     MOCLDY    75  72  90 CALM      29.98F
NEW ORLEANS LA FAIR      83  75  77 SW3       29.96R HX  90
OKLAHOMA CITY  CLOUDY    82  71  69 NW3       29.91R
ALBUQUERQUE NM MOCLDY    70  60  70 SE14      30.20R
SALT LAKE CITY FAIR      85  47  26 N7        30.05R
LOS ANGELES CA FAIR      69  64  84 W16       29.88R
BOISE ID       FAIR      87  44  22 N6        29.97S
SEATTLE WA     FAIR      67  55  65 NW6       30.10F
$$

*** WEATHER ACROSS MANITOBA...SASKATCHEWAN AND ONTARIO ***
                ***ONTARIO***

CITY           SKY/WX    TMP DP  RH WIND       PRES   REMARKS
GERALDTON      CLEAR     63  50  63 E5        30.08R
THUNDER BAY    PTCLDY    61  59  94 W2        30.07R
SIOUX LOOKOUT  PTCLDY    57  57 100 CALM      30.06S
TORONTO        PTCLDY    68  59  73 N15       29.92S
BIG TROUT LK   CLEAR     61  55  82 S2        29.99F
PICKLE LAKE    NOT AVBL
DRYDEN         CLEAR     72  55  56 S2        30.07S
KENORA         PTCLDY    73  57  56 CALM      30.07S
$$
                *** MANITOBA***

CITY           SKY/WX    TMP DP  RH WIND       PRES   REMARKS
BRANDON        PTCLDY    72  57  60 S5        30.04S
DAUPHIN        CLEAR     68  63  83 S5        30.00S
ISLAND LAKE    NOT AVBL
PILOT MOUND      N/A     66  61  82 SE5         N/A
THE PAS        PTCLDY    75  61  60 SE6       29.91F
THOMPSON       PTCLDY    77  57  50 S7        29.88S
WINNIPEG       PTCLDY    70  61  73 SE6       30.05R
LYNN LAKE      CLEAR     72  57  60 SW5       29.85S
CHURCHILL      MOCLDY    55  50  82 SE20      29.88F
GILLAM         PTCLDY    73  59  60 S6        29.87F
$$
                ***SASKATCHEWAN***

CITY           SKY/WX    TMP DP  RH WIND       PRES   REMARKS
ESTEVAN        MOCLDY    70  61  73 SE6       30.01S
KINDERSLEY     PTCLDY    77  52  41 SE14      29.83F
LLOYDMINSTER   PTCLDY    75  59  57 SE15G21   29.77S
PRINCE ALBERT  CLOUDY    73  64  73 SE7       29.90F
REGINA         MOCLDY    75  57  53 SE15G21   29.97R
YORKTON        CLEAR     70  57  64 SE6       30.01S



USA.gov is the U.S. government's official web portal to all federal, state and local government web resources and services.